Location: Rochester
(43.1547°N, 77.6158°W)
Time: 06:02:37
(UTC-05:00)

Envisat - Visible Passes

Search period start: 19 January 2018 00:00
Search period end: 29 January 2018 00:00
Orbit: 764 x 766 km, 98.2° (Epoch: 18 January)

Date Brightness Start Highest point End Pass type
(mag) Time Alt. Az. Time Alt. Az. Time Alt. Az.
19 Jan 4.2 19:25:58 28° N 19:25:58 28° N 19:28:27 10° N visible
19 Jan 5.9 21:06:09 10° NW 21:06:09 10° NW 21:06:16 10° NW visible
20 Jan 4.2 18:48:34 23° NE 18:48:34 23° NE 18:51:14 10° N visible
20 Jan 5.1 20:28:45 21° NW 20:28:45 21° NW 20:30:35 10° NNW visible
21 Jan 4.7 18:11:10 13° NE 18:11:10 13° NE 18:13:10 10° NNE visible
21 Jan 4.2 19:51:21 33° NNW 19:51:21 33° NNW 19:54:08 10° NNW visible
22 Jan 3.8 19:13:56 35° NNE 19:13:56 35° NNE 19:17:14 10° N visible
22 Jan 5.6 20:54:07 16° NW 20:54:07 16° NW 20:55:34 10° NW visible
23 Jan 4.2 18:36:31 22° NE 18:36:31 22° NE 18:39:50 10° NNE visible
23 Jan 4.5 20:16:42 31° NW 20:16:42 31° NW 20:19:35 10° NNW visible
24 Jan 4.8 17:59:06 11° ENE 17:59:45 11° ENE 18:01:02 10° NE visible
24 Jan 3.4 19:39:16 49° N 19:39:16 49° N 19:43:00 10° N visible
24 Jan 6.0 21:19:27 11° WNW 21:19:27 11° WNW 21:19:43 10° WNW visible
25 Jan 3.6 19:01:51 35° NE 19:01:51 35° NE 19:05:58 10° N visible
25 Jan 5.1 20:42:01 23° WNW 20:42:01 23° WNW 20:44:45 10° NW visible
26 Jan 4.3 18:24:23 18° ENE 18:24:58 18° ENE 18:28:21 10° NNE visible
26 Jan 3.7 20:04:34 49° NW 20:04:34 49° NW 20:08:32 10° NNW visible
27 Jan 2.9 19:27:07 61° NE 19:27:07 61° NE 19:31:49 10° N visible
27 Jan 5.6 21:07:18 15° WNW 21:07:18 15° WNW 21:09:22 10° NW visible
28 Jan 3.7 18:49:39 29° E 18:50:17 30° ENE 18:54:39 10° N visible
28 Jan 4.5 20:29:50 34° W 20:29:50 34° W 20:33:50 10° NNW visible
